Theta_e
316 316 316 316 316 316 316 316 317 317 316 316 316 317 317 317 317 318 318 318 318 318 317 318 319 325 313 304 305 316 350 352 343 326 316 311 307 306 307 315 317 315 318 320 320 325 326
316 316 316 316 316 315 316 316 316 316 316 316 316 317 317 317 318 317 317 317 317 317 317 318 319 324 309 297 309 317 328 327 323 317 314 311 309 310 309 314 314 316 316 315 318 326 327
316 316 316 316 315 315 315 315 315 315 315 315 316 316 316 317 317 317 317 316 316 317 318 318 319 321 311 302 312 312 315 319 321 315 312 312 312 308 312 312 320 315 309 311 315 323 327
315 315 315 315 315 314 314 315 315 314 315 316 316 316 316 316 316 316 316 315 316 318 320 320 320 315 303 314 312 313 312 311 316 319 316 315 313 310 311 315 311 307 305 301 309 322 325
315 315 315 315 315 314 314 314 314 314 314 315 315 315 315 315 315 315 314 314 317 321 322 322 312 310 306 324 315 314 313 310 312 318 316 322 317 311 310 304 301 304 298 300 306 319 320
315 315 315 315 314 314 314 313 313 313 314 314 314 314 314 314 314 314 313 315 317 318 319 320 320 307 309 306 308 307 311 313 311 311 313 312 305 301 300 299 294 300 300 299 304 315 320
315 315 314 314 313 313 312 313 313 313 314 314 314 314 314 314 313 313 310 302 297 295 297 295 303 309 310 311 307 304 305 309 309 306 303 305 299 295 299 300 305 306 304 303 309 319 317
315 314 314 314 314 314 314 313 313 313 313 314 314 314 313 313 312 312 306 300 295 298 291 299 300 300 303 303 300 303 305 300 303 298 301 300 295 301 305 305 304 303 301 301 307 320 318
315 314 314 314 314 314 314 314 313 313 313 313 313 313 313 312 311 305 301 301 302 298 289 295 299 299 299 301 298 299 301 299 301 298 298 296 299 305 305 303 302 300 298 300 305 315 319
315 315 315 314 315 315 314 314 313 313 313 312 312 312 312 310 301 301 302 306 307 298 285 293 296 300 301 300 297 305 303 301 302 299 299 298 304 303 302 302 301 294 304 306 305 307 304
315 316 315 315 315 315 314 314 313 313 312 312 312 312 311 311 300 300 304 305 307 296 280 301 299 307 302 298 299 301 304 299 295 301 299 297 300 301 300 302 304 300 306 305 308 305 308
315 316 316 315 315 315 314 313 313 313 312 312 311 311 310 305 301 305 306 305 296 287 282 297 299 296 297 299 301 303 300 300 301 297 301 300 306 303 303 305 306 306 302 303 303 303 296
316 315 316 315 315 314 314 313 313 312 312 311 310 309 308 308 298 302 303 294 285 281 295 292 291 294 291 292 296 298 295 293 290 290 291 298 300 303 306 299 303 300 293 289 289 293 295
316 316 315 315 314 314 313 313 313 312 311 311 309 308 306 309 305 305 294 289 279 290 290 296 294 293 290 293 294 295 293 290 293 294 292 292 291 300 305 300 296 295 294 288 286 288 293
316 315 315 315 314 314 313 313 312 312 311 310 308 300 301 305 308 300 289 281 283 289 293 292 292 289 288 291 292 292 290 290 294 294 290 290 293 303 304 304 301 295 292 298 292 292 291
315 315 315 314 314 314 313 313 312 312 310 309 300 297 299 308 305 294 286 284 286 293 293 291 285 288 284 287 286 287 289 294 293 297 296 292 290 299 304 303 302 298 299 293 290 287 285
315 315 315 314 314 314 313 313 312 311 310 308 296 293 301 304 300 291 282 284 291 294 294 290 286 285 286 285 286 285 288 294 295 295 296 291 292 297 300 297 295 294 292 293 293 292 288
315 314 314 314 314 314 313 313 311 310 308 302 294 290 303 301 288 285 284 289 294 292 292 290 290 288 286 287 284 286 286 290 297 297 290 293 289 288 293 300 303 297 294 293 290 289 291
315 315 314 314 314 314 314 313 311 309 308 298 291 292 303 297 284 285 288 290 291 291 290 289 288 290 289 286 283 286 290 294 298 296 292 294 288 284 291 294 298 296 297 292 293 292 291
314 315 314 314 313 313 314 313 312 310 310 298 292 289 292 293 291 287 286 287 288 296 292 292 289 290 288 285 286 285 288 293 297 297 308 301 287 287 284 289 293 294 298 299 294 289 291
314 314 314 314 313 313 313 313 313 311 310 298 294 289 290 285 287 289 288 289 289 290 295 292 287 290 287 282 284 285 289 290 294 299 297 290 284 287 291 295 296 297 299 301 294 295 294
314 313 312 314 313 313 313 313 313 311 309 296 291 289 291 288 289 288 291 289 291 291 290 288 287 291 289 284 286 285 287 285 287 293 293 292 287 290 291 299 300 298 301 302 302 298 296
313 313 313 313 313 313 313 313 313 311 305 295 302 301 292 289 286 287 288 291 292 292 292 294 291 290 289 291 292 292 291 291 289 288 289 289 287 288 287 295 298 295 300 302 302 300 299
313 313 313 313 312 312 312 313 312 311 308 302 301 298 292 285 286 289 293 294 292 292 290 293 293 290 295 298 296 294 292 291 292 292 293 290 287 288 287 292 288 298 308 309 307 308 303
313 312 312 312 312 312 312 312 312 312 310 305 303 299 294 288 289 290 292 292 292 294 292 292 296 297 298 295 287 287 284 285 289 292 291 294 288 286 287 287 296 302 305 305 304 303 316
313 312 312 312 312 312 312 312 312 312 309 305 303 304 297 290 289 292 291 292 289 290 290 292 295 300 297 294 289 282 280 285 286 290 294 293 293 288 287 286 289 298 305 311 312 302 315
312 312 312 312 311 311 312 312 311 311 309 306 303 304 298 291 294 293 288 290 294 289 286 288 292 296 297 287 285 283 283 290 285 285 286 286 287 286 286 288 296 303 307 314 300 302 314
312 311 311 312 311 311 312 312 311 311 310 306 303 304 299 293 292 294 298 290 291 289 288 290 291 294 294 286 285 288 289 291 288 289 286 285 285 286 287 290 290 305 306 301 305 310 313
311 311 311 312 311 311 311 311 310 311 312 309 301 305 305 297 295 296 299 300 299 297 292 291 290 293 295 290 287 291 288 292 293 286 295 289 291 293 296 295 301 304 303 307 307 306 311
Wind_Speed
17 18 18 18 18 19 20 20 21 21 22 24 25 25 26 26 26 26 25 24 22 20 20 17 15 13 3 1 14 4 5 8 10 9 10 7 5 5 5 4 3 9 16 15 18 14 15
17 18 18 18 19 19 20 20 21 22 23 23 25 25 25 25 26 26 27 26 23 21 19 15 12 7 1 5 7 5 7 6 7 8 8 9 7 8 6 6 5 6 14 11 9 18 12
17 18 18 19 19 20 21 22 22 23 24 24 24 25 26 27 28 28 30 28 27 22 20 15 9 4 2 20 4 6 1 4 5 8 7 9 13 2 1 7 6 5 8 10 8 8 19
17 17 18 18 19 20 21 22 22 24 25 25 25 26 27 29 29 30 32 32 30 24 18 10 7 4 10 7 5 9 4 6 7 8 7 9 8 6 4 6 9 6 2 3 3 9 13
17 17 18 19 20 20 21 22 22 23 24 24 25 27 28 29 30 30 32 35 32 12 1 10 5 4 13 11 4 9 10 7 4 7 7 10 7 9 6 1 5 2 5 4 6 10 19
17 18 18 19 20 20 21 22 23 23 24 24 25 26 27 29 31 29 34 31 21 3 5 5 4 2 7 5 3 7 3 6 5 4 4 5 3 3 3 4 7 5 4 2 4 4 3
17 18 19 19 19 20 21 22 23 23 23 24 25 26 27 29 31 31 18 8 10 7 6 9 7 7 14 7 5 10 4 5 4 4 7 4 3 6 9 5 5 5 3 3 5 5 7
16 17 18 19 20 20 20 21 21 23 24 24 25 26 28 31 33 32 2 5 4 7 14 11 17 19 24 5 9 17 6 2 4 7 3 2 7 8 6 6 7 9 5 6 7 3 6
18 18 19 19 19 19 19 21 22 23 23 24 25 25 27 30 35 5 4 5 8 8 4 10 6 7 9 14 11 15 5 3 4 6 6 7 9 9 9 10 10 9 7 4 6 3 7
18 18 18 19 19 19 19 20 21 22 23 24 25 25 26 30 6 7 7 8 12 2 5 11 6 9 6 6 5 13 12 8 5 10 6 7 11 9 15 14 9 10 7 9 8 4 5
18 17 18 19 19 19 20 20 21 22 23 24 25 24 22 19 5 5 8 9 14 6 4 4 4 1 4 10 1 4 7 6 7 7 8 10 10 13 13 18 13 9 9 9 8 5 7
18 18 18 19 19 19 19 20 21 22 23 25 25 25 25 5 2 12 9 14 4 6 6 6 5 8 7 5 3 2 4 4 4 6 5 9 4 9 14 16 13 6 5 1 3 6 3
18 18 19 19 19 19 20 20 21 22 24 26 27 27 21 4 6 2 6 5 6 4 7 9 8 10 8 8 9 6 4 8 6 5 5 2 13 5 5 7 9 5 6 2 2 1 8
18 18 19 19 19 19 19 20 21 22 23 26 29 30 7 8 7 2 5 6 2 4 5 7 8 9 6 15 9 9 8 3 4 4 1 6 8 8 5 9 9 8 11 8 8 5 6
18 18 19 19 19 19 18 20 19 21 23 26 27 5 5 6 9 4 6 4 5 5 6 8 7 8 8 14 9 12 6 4 7 2 5 5 9 6 6 8 10 4 4 11 6 1 3
18 18 19 19 19 18 18 19 18 20 23 27 7 5 5 7 6 5 6 4 4 5 5 7 6 6 7 11 10 12 6 3 12 14 14 7 5 7 11 2 6 10 6 2 3 6 5
18 18 18 18 18 17 16 18 18 18 20 24 2 5 6 3 5 6 3 6 5 5 8 7 5 4 6 6 5 6 6 6 22 16 17 4 4 16 5 6 5 1 3 2 5 7 7
17 17 17 17 16 16 15 14 15 15 19 6 3 2 5 6 4 0 2 2 8 6 6 8 6 7 4 7 5 5 4 8 17 18 10 5 1 5 10 7 4 5 7 9 7 5 2
17 17 17 16 16 15 15 12 12 13 11 3 3 5 5 5 3 4 6 4 5 7 6 4 5 5 4 4 6 4 4 15 15 16 10 9 6 6 9 6 8 4 3 4 4 6 8
16 17 17 15 15 13 13 13 11 10 10 3 3 4 6 6 2 3 6 5 6 6 3 3 3 2 4 4 2 8 10 9 17 16 20 9 3 5 5 5 4 7 13 7 7 6 6
15 16 17 15 14 12 10 11 10 9 9 3 1 3 1 5 5 8 4 5 5 5 3 3 1 2 3 3 5 6 5 9 10 9 11 7 4 2 8 10 8 10 13 13 3 10 11
15 16 16 14 13 12 10 10 8 7 9 3 2 3 5 4 4 6 7 5 5 14 3 4 4 4 1 4 7 13 5 4 5 6 8 7 5 0 4 4 6 12 11 9 9 7 4
15 16 15 14 11 11 11 9 6 4 5 2 3 3 4 5 6 3 3 6 10 7 6 6 1 3 3 6 1 5 6 6 7 6 7 5 5 4 4 9 9 4 6 4 6 6 9
14 15 15 13 11 11 10 9 5 1 2 1 1 1 2 4 3 3 6 8 5 5 4 6 4 4 5 1 3 5 6 8 8 15 8 9 5 5 4 4 3 5 12 5 8 9 4
13 14 14 12 10 11 10 8 5 1 5 2 0 2 1 2 3 5 10 5 6 7 1 3 2 6 5 5 4 6 4 2 9 19 15 18 3 5 3 2 7 7 13 9 6 6 16
13 13 14 11 10 10 9 7 4 1 7 2 1 1 2 0 3 3 5 4 2 4 7 5 4 4 4 2 3 3 5 7 6 5 13 14 13 2 2 2 2 5 16 19 6 4 15
12 12 13 10 8 9 8 6 3 3 9 2 1 2 2 1 3 2 2 4 4 3 3 6 9 3 7 3 4 5 5 6 5 8 6 6 3 5 2 2 2 15 19 7 8 5 10
11 11 12 9 7 7 7 5 2 2 11 3 0 3 2 2 5 3 2 1 4 2 3 5 5 4 2 3 2 3 3 4 3 5 3 5 3 3 3 2 5 20 12 9 6 6 7
10 11 10 8 5 6 5 4 2 2 10 6 1 1 2 1 5 3 14 17 11 16 1 2 4 4 5 2 2 2 2 4 6 4 8 6 5 3 5 4 12 10 2 5 9 4 6
Wind_Direction
18 15 12 9 6 4 1 358 354 351 349 346 344 341 339 335 332 330 327 323 320 316 314 314 317 318 346 310 250 259 117 97 141 162 190 197 209 178 218 227 263 247 271 282 281 198 178
15 12 9 6 3 1 358 356 353 349 346 344 341 338 335 333 331 329 325 322 317 311 304 299 304 311 300 259 252 243 148 148 142 162 181 181 219 201 288 251 190 275 291 292 263 177 146
12 9 5 3 1 358 355 352 351 348 344 342 339 337 334 333 332 330 325 320 315 307 295 287 274 240 247 240 244 325 105 215 190 169 170 207 224 342 93 301 281 276 310 327 197 169 138
7 5 2 359 359 357 354 350 348 345 341 340 339 336 334 333 332 330 325 320 311 309 297 266 217 197 245 254 243 272 181 268 227 211 198 197 199 225 181 276 334 350 351 324 222 170 147
3 1 360 357 355 354 352 350 347 343 339 338 336 334 332 331 329 329 323 315 306 315 151 135 127 165 266 296 243 242 180 222 189 215 216 236 147 203 256 216 360 3 246 251 320 193 155
359 357 356 354 354 351 350 348 343 341 339 336 335 332 330 329 327 330 323 309 293 108 138 191 248 15 270 269 4 299 238 200 205 242 295 190 108 167 30 123 207 205 225 328 239 176 126
355 354 351 350 350 350 347 343 341 338 337 333 331 330 331 329 326 327 334 351 13 348 52 219 221 257 289 313 332 318 344 330 168 128 201 245 131 206 226 173 230 276 275 339 294 182 101
350 347 346 344 344 342 340 339 339 335 335 332 330 332 334 329 324 323 333 16 301 260 300 254 242 249 254 6 309 294 104 76 158 207 151 264 212 213 224 246 233 250 263 270 315 50 89
345 343 341 340 338 338 335 334 334 334 334 329 329 334 335 330 322 350 295 254 306 17 296 298 237 225 226 159 215 261 137 136 237 200 179 187 224 197 221 238 242 246 211 201 210 112 65
341 338 336 335 334 333 332 331 330 330 329 327 331 334 334 338 17 326 296 293 338 37 22 279 247 259 173 134 237 218 192 154 222 201 184 222 223 204 212 236 197 245 207 226 240 134 199
336 333 331 330 330 330 329 328 329 326 327 329 330 328 328 330 275 314 256 334 324 60 355 320 317 259 146 163 171 251 156 107 203 201 141 227 173 205 219 225 215 249 189 213 209 137 119
332 330 328 328 328 327 327 326 327 324 325 326 327 323 328 329 233 241 309 305 40 49 259 323 23 332 9 298 259 335 142 112 179 226 254 211 237 193 215 232 237 219 240 297 159 113 139
326 327 325 325 326 326 325 326 325 324 325 324 323 320 318 255 236 337 348 24 55 159 328 1 341 329 335 310 30 349 160 155 176 137 241 286 250 233 204 212 248 185 93 270 343 134 209
323 324 322 324 324 324 325 324 324 324 325 325 322 316 262 216 244 340 27 48 191 289 22 348 322 315 48 16 10 12 10 345 319 117 360 182 264 211 217 179 199 198 165 159 187 173 206
324 323 324 325 325 323 325 323 323 325 329 327 324 324 292 257 225 102 64 54 224 359 337 343 348 30 342 0 359 9 15 297 24 187 183 188 246 270 222 207 153 236 142 191 174 166 94
323 325 327 326 323 322 321 324 327 330 333 327 326 339 276 261 137 72 72 255 282 344 17 26 42 40 1 347 10 8 344 354 353 10 5 283 253 221 263 267 238 165 189 125 344 176 246
324 328 327 326 327 324 326 326 329 335 335 320 30 356 265 315 77 54 153 233 291 1 46 41 19 357 31 1 315 333 315 328 17 338 341 306 218 256 136 180 225 4 183 112 130 148 176
323 328 327 329 327 327 328 326 329 339 340 17 16 359 275 38 47 86 169 282 2 353 33 39 72 47 49 1 347 332 290 345 353 359 330 308 277 276 226 224 188 151 228 173 169 261 209
326 330 330 330 329 331 327 328 332 344 16 349 342 275 302 97 45 329 313 3 3 13 47 51 37 45 30 13 343 302 335 345 348 356 4 325 337 350 344 356 15 13 333 202 147 109 207
328 332 329 329 329 335 335 328 335 341 356 64 4 349 328 34 80 35 6 347 353 28 91 123 155 51 23 340 217 291 308 311 338 337 341 319 240 151 225 239 217 289 308 307 189 137 168
330 333 327 327 330 331 336 331 326 342 350 76 67 292 288 331 339 330 341 356 355 342 12 155 208 192 132 283 315 283 328 331 335 327 353 30 245 262 274 261 266 269 285 292 246 226 178
330 332 331 327 326 332 339 332 325 340 345 72 65 35 351 292 306 341 359 9 7 342 279 258 165 240 203 216 207 286 328 31 277 324 4 349 273 114 285 269 283 272 273 276 281 208 169
331 328 324 326 325 327 332 332 334 337 50 14 337 346 94 291 333 28 342 353 340 350 314 37 133 117 299 260 198 251 206 226 260 294 339 294 343 355 306 314 323 325 300 258 284 248 171
327 323 322 323 323 328 326 327 334 268 157 123 33 16 30 288 352 12 356 319 353 340 242 298 91 112 229 29 314 264 243 226 239 263 184 264 356 279 250 349 185 216 27 26 312 281 336
318 321 320 319 322 327 328 324 336 221 190 120 72 104 123 268 321 304 350 308 328 321 358 265 85 215 255 53 13 315 319 219 229 242 220 212 155 277 80 234 274 16 3 338 340 310 8
319 321 320 320 321 326 327 328 338 268 173 104 144 111 115 235 225 323 303 308 333 336 340 296 351 17 95 112 174 249 232 212 177 244 195 184 203 155 19 3 355 278 321 308 207 313 354
314 320 318 319 323 325 331 332 325 186 166 125 152 173 111 214 266 58 282 304 328 10 271 294 335 352 105 217 182 222 262 231 162 163 157 137 142 152 192 269 37 334 326 310 71 284 333
314 320 316 319 321 324 334 343 342 158 167 136 154 195 147 231 279 241 255 251 324 228 234 288 349 326 335 289 200 241 240 328 6 1 25 118 118 191 141 154 9 341 2 62 289 319 17
316 318 314 315 317 321 356 351 6 145 170 168 126 153 102 297 270 243 263 249 221 230 232 262 236 193 214 331 272 270 290 358 336 52 351 61 17 336 54 61 309 299 12 8 26 31 1